This demonstration page uses our WeatherBlox Daily Observations layout. Learn more.

Left ArrowRight Arrow

39.01783, -85.05884

Hourly Observations for August 20, 2022

Temp ( °F °C ) Dew Point ( °F °C ) Humidity (%) Winds ( mph kmh ) Pressure ( in mb ) Visibility ( mi km ) Precip ( " mm )
12:52 am 00:52 Mostly Cloudy 75 23.9 63 17.2 66 66 SSE 9 15 30.00 1016 10 16 0.00 0.00
1:52 am 01:52 Clear 72 22.2 63 17.2 73 73 S 5 7 30.01 1016 10 16 0.00 0.00
2:52 am 02:52 Mostly Clear 70 21.1 63 17.2 78 78 S 5 7 30.01 1016 10 16 0.00 0.00
3:52 am 03:52 Mostly Clear 69 20.6 63 17.2 81 81 S 3 6 30.00 1016 10 16 0.00 0.00
4:52 am 04:52 Clear 69 20.6 63 17.2 81 81 Calm 30.00 1016 10 16 0.00 0.00
5:52 am 05:52 Mostly Clear 67 19.4 63 17.2 87 87 SSE 7 11 30.01 1016 10 16 0.00 0.00
6:52 am 06:52 Mostly Clear 66 18.9 56 13.3 70 70 SSE 7 11 30.02 1017 8 13 0.00 0.00
7:52 am 07:52 Mostly Cloudy 68 20 68 20 100 100 S 8 13 30.03 1017 8 13 0.00 0.00
8:52 am 08:52 Mostly Cloudy 72 22.2 67 19.4 84 84 SSW 7 11 30.06 1018 8 13 0.00 0.00
9:52 am 09:52 Mostly Cloudy 74 23.3 68 20 82 82 SSW 9 15 30.05 1018 9 14 0.00 0.00
10:52 am 10:52 Mostly Cloudy 75 23.9 69 20.6 82 82 SSW 7 11 30.07 1018 9 14 0.00 0.00
11:52 am 11:52 Mostly Cloudy 81 27.2 72 22.2 74 74 VRB 3 6 30.06 1018 10 16 0.00 0.00
12:52 pm 12:52 Mostly Cloudy 82 27.8 71 21.7 69 69 S 9 15 30.04 1017 10 16 0.00 0.00
1:52 pm 13:52 Mostly Cloudy 84 28.9 69 20.6 61 61 S 9 15 30.02 1017 10 16 0.00 0.00
2:38 pm 14:38 Cloudy with Nearby Thunderstorms 82 27.8 68 20 63 63 SSW 12 19 29.98 1015 10 16 0.00 0.00
2:52 pm 14:52 Cloudy with Thunderstorms 81 27.2 69 20.6 67 67 SSW 5 7 30.00 1016 10 16 0.00 0.00
3:13 pm 15:13 Cloudy with Thunderstorms 74 23.3 71 21.7 91 91 WNW 21 33 30.02 1017 2 3 0.01 0.13
3:20 pm 15:20 Cloudy with Strong Thunderstorms 71 21.7 68 20 90 90 W 20 31 30.03 1017 1 2 0.05 1.27
3:32 pm 15:32 Cloudy with Thunderstorms 72 22.2 66 18.9 82 82 S 20 31 30.01 1016 1 1 0.15 3.81
3:43 pm 15:43 Cloudy with Thunderstorms 74 23.3 64 17.8 71 71 SW 7 11 29.99 1016 7 11 0.17 4.32
3:57 pm 15:57 Partly Cloudy with Nearby Thunderstorms 79 26.1 71 21.7 77 77 WNW 8 13 29.99 1016 10 16 0.00 0.00
4:09 pm 16:09 Mostly Cloudy 80 26.7 70 21.1 71 71 NW 8 13 29.99 1015 10 16 0.00 0.00
4:52 pm 16:52 Mostly Cloudy with Nearby Thunderstorms 80 26.7 69 20.6 69 69 NNW 3 6 29.98 1015 10 16 0.00 0.00
5:23 pm 17:23 Mostly Cloudy with Nearby Thunderstorms 79 26.1 69 20.6 72 72 SW 3 6 29.98 1015 10 16 0.00 0.00
5:40 pm 17:40 Mostly Cloudy with Thunderstorms 76 24.4 70 21.1 82 82 SSW 8 13 29.98 1015 10 16 0.00 0.00
5:52 pm 17:52 Mostly Cloudy with Thunderstorms 75 23.9 63 17.2 66 66 SSW 14 22 29.98 1015 10 16 0.00 0.00
6:18 pm 18:18 Cloudy with Light Rain 72 22.2 67 19.4 84 84 WSW 6 9 29.96 1015 6 10 0.01 0.25
6:52 pm 18:52 Cloudy with Thunderstorms 70 21.1 67 19.4 90 90 SW 22 35 30.01 1016 2 2 0.04 1.02
6:56 pm 18:56 Cloudy with Strong Thunderstorms 68 20 66 18.9 93 93 WSW 20 31 30.02 1017 1 1 0.02 0.51
6:59 pm 18:59 Cloudy with Strong Thunderstorms 68 20 65 18.3 90 90 WSW 14 22 30.02 1017 0 0 0.08 2.03
7:07 pm 19:07 Cloudy with Strong Thunderstorms 67 19.4 53 11.7 61 61 WSW 12 19 30.01 1016 2 2 0.34 8.64
7:15 pm 19:15 Cloudy with Thunderstorms 68 20 44 6.7 42 42 SW 6 9 30.01 1016 3 5 0.45 11.43
7:28 pm 19:28 Mostly Cloudy with Nearby Thunderstorms 68 20 60 15.6 76 76 VRB 5 7 30.01 1016 10 16 0.45 11.43
7:39 pm 19:39 Mostly Cloudy 69 20.6 52 11.1 54 54 Calm 30.00 1016 10 16 0.45 11.43
7:52 pm 19:52 Mostly Cloudy 70 21.1 57 13.9 63 63 Calm 29.98 1015 10 16 0.45 11.43
8:52 pm 20:52 Cloudy with Light Rain 68 20 51 10.6 55 55 Calm 29.98 1015 8 13 0.01 0.13
9:52 pm 21:52 Mostly Cloudy 68 20 43 6.1 40 40 ESE 8 13 30.00 1016 10 16 0.01 0.13
10:52 pm 22:52 Mostly Cloudy 68 20 60 15.6 76 76 S 5 7 30.00 1016 10 16 0.00 0.00
11:13 pm 23:13 Partly Cloudy 68 20 67 19.4 96 96 SE 5 7 30.01 1016 10 16 0.00 0.00
11:52 pm 23:52 Partly Cloudy 69 20.6 44 6.7 40 40 SSE 5 7 29.99 1016 10 16 0.00 0.00

Powered by AerisWeather